QPF
0.04 0.06 0.08 0.09 0.12 0.16 0.15 0.12 0.11 0.13 0.13 0.09 0.07 0.06 0.06 0.06 0.06 0.05 0.04 0.03 0.02 0.02 0.02 0.01 0.01 0.01 0.01 0.01 0.01 0.02 0.02 0.03 0.03 0.04 0.04 0.06 0.06 0.07
0.02 0.03 0.05 0.05 0.07 0.12 0.15 0.16 0.14 0.12 0.11 0.09 0.09 0.07 0.10 0.11 0.08 0.04 0.04 0.04 0.02 0.02 0.01 0.01 0.01 0.01 0.01 0.01 0.01 0.01 0.01 0.01 0.02 0.03 0.03 0.03 0.04 0.05
0.01 0.02 0.02 0.03 0.04 0.07 0.12 0.15 0.17 0.16 0.13 0.09 0.11 0.13 0.13 0.13 0.10 0.08 0.06 0.04 0.02 0.01 0.01 0.01 0.00 0.00 0.00 0.00 0.01 0.00 0.00 0.01 0.01 0.01 0.02 0.03 0.02 0.03
0.01 0.01 0.01 0.02 0.03 0.05 0.08 0.11 0.13 0.15 0.17 0.15 0.13 0.14 0.15 0.15 0.13 0.10 0.08 0.05 0.02 0.02 0.01 0.01 0.00 0.00 0.00 0.00 0.00 0.00 0.00 0.00 0.00 0.01 0.01 0.02 0.03 0.03
0.01 0.01 0.01 0.01 0.02 0.05 0.07 0.09 0.12 0.13 0.13 0.14 0.15 0.13 0.13 0.15 0.17 0.14 0.09 0.07 0.04 0.03 0.02 0.01 0.01 0.00 0.00 0.00 0.00 0.00 0.00 0.00 0.00 0.00 0.01 0.02 0.02 0.02
0.01 0.01 0.01 0.01 0.01 0.03 0.05 0.08 0.11 0.13 0.14 0.15 0.16 0.16 0.14 0.14 0.17 0.15 0.12 0.08 0.05 0.04 0.02 0.01 0.01 0.00 0.00 0.00 0.00 0.00 0.01 0.01 0.00 0.01 0.01 0.02 0.03 0.02
0.01 0.01 0.01 0.01 0.01 0.02 0.03 0.05 0.09 0.11 0.14 0.19 0.20 0.19 0.18 0.17 0.13 0.14 0.12 0.08 0.06 0.04 0.03 0.02 0.01 0.00 0.00 0.00 0.00 0.01 0.01 0.01 0.01 0.01 0.01 0.01 0.01 0.02
0.02 0.01 0.01 0.01 0.01 0.02 0.02 0.05 0.07 0.10 0.14 0.19 0.24 0.22 0.18 0.17 0.15 0.14 0.13 0.09 0.05 0.03 0.02 0.02 0.02 0.01 0.01 0.00 0.01 0.01 0.01 0.01 0.01 0.01 0.01 0.01 0.01 0.01
0.03 0.02 0.01 0.01 0.01 0.02 0.02 0.03 0.07 0.08 0.10 0.15 0.22 0.24 0.23 0.19 0.19 0.15 0.13 0.11 0.07 0.04 0.03 0.02 0.02 0.01 0.01 0.01 0.01 0.01 0.01 0.01 0.01 0.01 0.01 0.01 0.01 0.01
0.04 0.03 0.02 0.02 0.02 0.02 0.02 0.02 0.03 0.07 0.08 0.08 0.12 0.19 0.23 0.24 0.21 0.18 0.16 0.15 0.12 0.09 0.06 0.03 0.02 0.01 0.01 0.01 0.01 0.01 0.01 0.01 0.01 0.01 0.01 0.01 0.01 0.01
0.04 0.04 0.04 0.02 0.02 0.02 0.02 0.02 0.02 0.04 0.07 0.07 0.08 0.12 0.17 0.23 0.25 0.22 0.16 0.15 0.13 0.09 0.07 0.05 0.03 0.01 0.01 0.01 0.01 0.01 0.01 0.01 0.01 0.01 0.01 0.01 0.01 0.01
0.05 0.04 0.05 0.04 0.02 0.03 0.03 0.03 0.02 0.02 0.05 0.07 0.06 0.08 0.12 0.15 0.19 0.22 0.17 0.14 0.13 0.12 0.08 0.06 0.04 0.02 0.01 0.01 0.01 0.01 0.01 0.01 0.01 0.01 0.01 0.01 0.01 0.00
0.06 0.05 0.05 0.05 0.03 0.02 0.02 0.03 0.03 0.02 0.03 0.06 0.07 0.07 0.08 0.10 0.11 0.15 0.19 0.14 0.12 0.11 0.09 0.08 0.05 0.02 0.01 0.01 0.01 0.01 0.00 0.00 0.00 0.00 0.01 0.00 0.00 0.00
0.06 0.05 0.05 0.05 0.04 0.02 0.02 0.02 0.03 0.02 0.02 0.03 0.06 0.07 0.07 0.07 0.07 0.09 0.14 0.16 0.13 0.11 0.08 0.08 0.06 0.03 0.01 0.01 0.00 0.00 0.00 0.00 0.00 0.00 0.00 0.00 0.00 0.00
0.03 0.04 0.04 0.04 0.03 0.02 0.01 0.01 0.02 0.02 0.02 0.02 0.03 0.06 0.06 0.05 0.07 0.09 0.10 0.13 0.13 0.14 0.11 0.06 0.05 0.04 0.03 0.01 0.01 0.00 0.00 0.00 0.00 0.00 0.00 0.00 0.00 0.00
0.01 0.02 0.03 0.03 0.03 0.02 0.02 0.01 0.01 0.02 0.02 0.02 0.01 0.04 0.07 0.06 0.08 0.09 0.09 0.09 0.11 0.15 0.14 0.10 0.07 0.06 0.04 0.02 0.02 0.01 0.00 0.00 0.00 0.00 0.00 0.00 0.00 0.00
0.02 0.02 0.03 0.03 0.02 0.02 0.02 0.02 0.01 0.01 0.02 0.01 0.01 0.02 0.05 0.07 0.07 0.10 0.09 0.09 0.09 0.10 0.12 0.12 0.11 0.09 0.08 0.06 0.04 0.02 0.01 0.00 0.00 0.00 0.00 0.00 0.00 0.00
0.03 0.03 0.04 0.04 0.03 0.03 0.03 0.02 0.01 0.01 0.01 0.01 0.01 0.01 0.03 0.07 0.07 0.09 0.10 0.09 0.08 0.08 0.10 0.09 0.12 0.14 0.13 0.11 0.08 0.04 0.02 0.01 0.01 0.01 0.00 0.01 0.01 0.01
0.03 0.03 0.04 0.04 0.04 0.04 0.03 0.03 0.02 0.01 0.01 0.01 0.01 0.01 0.03 0.07 0.08 0.09 0.09 0.08 0.08 0.09 0.10 0.09 0.09 0.11 0.11 0.09 0.07 0.05 0.04 0.02 0.01 0.01 0.00 0.00 0.00 0.00
0.04 0.04 0.03 0.03 0.03 0.04 0.03 0.03 0.02 0.02 0.02 0.02 0.02 0.02 0.03 0.07 0.09 0.09 0.08 0.06 0.07 0.09 0.10 0.11 0.09 0.07 0.08 0.07 0.05 0.04 0.03 0.03 0.02 0.01 0.01 0.01 0.01 0.01
0.05 0.05 0.04 0.03 0.03 0.04 0.04 0.04 0.03 0.03 0.02 0.02 0.02 0.02 0.04 0.07 0.09 0.09 0.08 0.07 0.07 0.08 0.09 0.08 0.08 0.09 0.09 0.09 0.08 0.06 0.05 0.04 0.03 0.02 0.01 0.01 0.01 0.00
0.04 0.04 0.04 0.05 0.05 0.04 0.04 0.03 0.04 0.04 0.03 0.02 0.03 0.04 0.05 0.10 0.10 0.07 0.08 0.07 0.06 0.07 0.07 0.09 0.12 0.11 0.11 0.10 0.07 0.06 0.05 0.05 0.04 0.03 0.02 0.01 0.01 0.00
0.03 0.03 0.04 0.04 0.04 0.04 0.04 0.03 0.03 0.03 0.03 0.03 0.04 0.06 0.10 0.12 0.09 0.06 0.06 0.07 0.07 0.07 0.08 0.11 0.15 0.14 0.11 0.10 0.09 0.07 0.05 0.04 0.03 0.02 0.01 0.01 0.01 0.01
MSLP
1008.88 1008.94 1009.05 1009.20 1009.34 1009.45 1009.49 1009.46 1009.35 1009.19 1009.01 1008.85 1008.74 1008.71 1008.78 1008.96 1009.26 1009.65 1010.11 1010.64 1011.20 1011.76 1012.31 1012.83 1013.29 1013.69 1014.03 1014.31 1014.53 1014.73 1014.93 1015.15 1015.39 1015.68 1016.00 1016.36 1016.73 1017.09
1008.59 1008.69 1008.85 1009.05 1009.25 1009.42 1009.53 1009.55 1009.50 1009.39 1009.23 1009.07 1008.95 1008.89 1008.92 1009.05 1009.28 1009.62 1010.05 1010.55 1011.09 1011.66 1012.22 1012.74 1013.20 1013.59 1013.90 1014.14 1014.31 1014.45 1014.58 1014.72 1014.91 1015.15 1015.44 1015.77 1016.13 1016.49
1008.23 1008.34 1008.53 1008.77 1009.02 1009.25 1009.42 1009.52 1009.55 1009.51 1009.41 1009.30 1009.20 1009.15 1009.16 1009.26 1009.46 1009.76 1010.15 1010.62 1011.14 1011.70 1012.25 1012.77 1013.23 1013.61 1013.89 1014.09 1014.22 1014.29 1014.36 1014.43 1014.55 1014.73 1014.97 1015.26 1015.59 1015.94
1007.78 1007.90 1008.11 1008.36 1008.65 1008.92 1009.16 1009.34 1009.45 1009.50 1009.49 1009.46 1009.42 1009.40 1009.43 1009.52 1009.71 1009.98 1010.34 1010.79 1011.29 1011.83 1012.38 1012.89 1013.34 1013.71 1013.98 1014.14 1014.22 1014.25 1014.25 1014.25 1014.30 1014.41 1014.59 1014.83 1015.12 1015.43
1007.28 1007.39 1007.59 1007.85 1008.15 1008.46 1008.75 1009.00 1009.20 1009.34 1009.43 1009.48 1009.51 1009.55 1009.62 1009.75 1009.93 1010.20 1010.55 1010.98 1011.47 1012.00 1012.53 1013.04 1013.49 1013.85 1014.10 1014.25 1014.30 1014.28 1014.23 1014.17 1014.15 1014.19 1014.30 1014.47 1014.71 1014.97
1006.72 1006.82 1007.01 1007.27 1007.57 1007.90 1008.23 1008.53 1008.80 1009.01 1009.19 1009.33 1009.45 1009.56 1009.68 1009.84 1010.06 1010.34 1010.69 1011.11 1011.60 1012.12 1012.65 1013.16 1013.61 1013.98 1014.23 1014.38 1014.42 1014.37 1014.28 1014.18 1014.10 1014.07 1014.11 1014.22 1014.39 1014.59
1006.13 1006.23 1006.41 1006.66 1006.96 1007.29 1007.64 1007.97 1008.28 1008.56 1008.80 1009.01 1009.20 1009.38 1009.57 1009.78 1010.02 1010.33 1010.69 1011.12 1011.61 1012.14 1012.68 1013.20 1013.67 1014.05 1014.33 1014.49 1014.54 1014.50 1014.40 1014.28 1014.16 1014.08 1014.06 1014.10 1014.20 1014.35
1005.56 1005.66 1005.84 1006.08 1006.37 1006.69 1007.03 1007.37 1007.70 1008.01 1008.30 1008.57 1008.81 1009.05 1009.28 1009.54 1009.82 1010.15 1010.54 1010.99 1011.49 1012.03 1012.59 1013.14 1013.63 1014.05 1014.37 1014.58 1014.67 1014.66 1014.58 1014.46 1014.34 1014.23 1014.17 1014.16 1014.21 1014.29
1005.03 1005.14 1005.32 1005.56 1005.84 1006.15 1006.48 1006.81 1007.14 1007.46 1007.76 1008.06 1008.33 1008.61 1008.88 1009.17 1009.49 1009.85 1010.26 1010.72 1011.24 1011.80 1012.38 1012.96 1013.50 1013.97 1014.35 1014.62 1014.78 1014.84 1014.82 1014.74 1014.64 1014.54 1014.47 1014.43 1014.44 1014.47
1004.57 1004.70 1004.90 1005.14 1005.41 1005.71 1006.02 1006.34 1006.65 1006.96 1007.26 1007.56 1007.85 1008.14 1008.44 1008.75 1009.09 1009.47 1009.89 1010.37 1010.90 1011.48 1012.08 1012.69 1013.27 1013.80 1014.25 1014.61 1014.86 1015.01 1015.08 1015.08 1015.04 1014.98 1014.93 1014.90 1014.89 1014.90
1004.19 1004.36 1004.57 1004.82 1005.10 1005.39 1005.69 1005.99 1006.28 1006.57 1006.86 1007.15 1007.43 1007.73 1008.03 1008.35 1008.69 1009.08 1009.50 1009.98 1010.52 1011.10 1011.72 1012.35 1012.97 1013.56 1014.08 1014.53 1014.88 1015.14 1015.32 1015.42 1015.47 1015.49 1015.49 1015.49 1015.49 1015.50
1003.91 1004.11 1004.35 1004.62 1004.90 1005.19 1005.48 1005.76 1006.03 1006.30 1006.57 1006.85 1007.12 1007.41 1007.71 1008.02 1008.36 1008.74 1009.15 1009.62 1010.14 1010.71 1011.32 1011.96 1012.60 1013.23 1013.82 1014.35 1014.81 1015.18 1015.47 1015.69 1015.84 1015.95 1016.03 1016.09 1016.14 1016.17
1003.74 1003.97 1004.23 1004.51 1004.80 1005.09 1005.36 1005.63 1005.89 1006.14 1006.39 1006.65 1006.91 1007.19 1007.48 1007.78 1008.11 1008.47 1008.86 1009.30 1009.79 1010.33 1010.92 1011.54 1012.18 1012.83 1013.46 1014.05 1014.59 1015.06 1015.46 1015.79 1016.06 1016.27 1016.44 1016.57 1016.68 1016.76
1003.69 1003.93 1004.19 1004.48 1004.77 1005.04 1005.30 1005.55 1005.79 1006.03 1006.27 1006.52 1006.77 1007.04 1007.32 1007.62 1007.93 1008.26 1008.63 1009.03 1009.47 1009.96 1010.50 1011.09 1011.70 1012.34 1012.98 1013.61 1014.20 1014.75 1015.24 1015.67 1016.03 1016.34 1016.60 1016.82 1016.99 1017.14
1003.74 1003.97 1004.23 1004.49 1004.76 1005.01 1005.25 1005.47 1005.69 1005.91 1006.14 1006.38 1006.63 1006.90 1007.18 1007.47 1007.77 1008.09 1008.42 1008.78 1009.17 1009.60 1010.08 1010.60 1011.17 1011.78 1012.40 1013.03 1013.65 1014.24 1014.79 1015.29 1015.73 1016.12 1016.46 1016.75 1017.00 1017.21
1003.88 1004.08 1004.30 1004.52 1004.74 1004.95 1005.14 1005.33 1005.52 1005.72 1005.94 1006.17 1006.43 1006.71 1007.00 1007.29 1007.59 1007.89 1008.20 1008.52 1008.86 1009.23 1009.64 1010.10 1010.60 1011.15 1011.74 1012.34 1012.96 1013.56 1014.14 1014.68 1015.18 1015.63 1016.02 1016.37 1016.68 1016.95
1004.07 1004.21 1004.37 1004.53 1004.68 1004.82 1004.95 1005.09 1005.24 1005.41 1005.61 1005.85 1006.12 1006.41 1006.72 1007.04 1007.35 1007.65 1007.94 1008.23 1008.53 1008.85 1009.20 1009.59 1010.02 1010.50 1011.03 1011.60 1012.19 1012.78 1013.36 1013.92 1014.45 1014.93 1015.36 1015.76 1016.11 1016.43
1004.24 1004.33 1004.41 1004.48 1004.53 1004.59 1004.64 1004.72 1004.82 1004.96 1005.16 1005.40 1005.68 1006.00 1006.34 1006.68 1007.01 1007.33 1007.63 1007.91 1008.18 1008.46 1008.75 1009.09 1009.46 1009.88 1010.36 1010.88 1011.43 1012.00 1012.57 1013.12 1013.65 1014.15 1014.60 1015.02 1015.39 1015.74
1004.36 1004.36 1004.36 1004.33 1004.29 1004.25 1004.22 1004.23 1004.28 1004.40 1004.58 1004.82 1005.13 1005.48 1005.85 1006.23 1006.60 1006.94 1007.26 1007.54 1007.81 1008.07 1008.33 1008.62 1008.95 1009.33 1009.75 1010.23 1010.75 1011.29 1011.84 1012.38 1012.91 1013.41 1013.86 1014.29 1014.68 1015.04
1004.35 1004.28 1004.19 1004.07 1003.93 1003.81 1003.71 1003.65 1003.66 1003.75 1003.92 1004.18 1004.51 1004.89 1005.30 1005.72 1006.13 1006.51 1006.85 1007.16 1007.43 1007.68 1007.93 1008.20 1008.50 1008.85 1009.25 1009.70 1010.19 1010.71 1011.24 1011.78 1012.29 1012.79 1013.24 1013.67 1014.06 1014.43
1004.19 1004.06 1003.89 1003.69 1003.48 1003.28 1003.12 1003.02 1003.00 1003.08 1003.25 1003.52 1003.87 1004.28 1004.73 1005.19 1005.64 1006.05 1006.42 1006.75 1007.04 1007.30 1007.55 1007.82 1008.11 1008.45 1008.83 1009.26 1009.74 1010.25 1010.78 1011.31 1011.82 1012.31 1012.77 1013.19 1013.58 1013.95
1003.89 1003.70 1003.47 1003.21 1002.95 1002.71 1002.52 1002.39 1002.36 1002.43 1002.61 1002.90 1003.27 1003.71 1004.18 1004.67 1005.14 1005.58 1005.98 1006.33 1006.63 1006.91 1007.18 1007.45 1007.74 1008.08 1008.46 1008.89 1009.37 1009.88 1010.41 1010.94 1011.46 1011.95 1012.41 1012.83 1013.22 1013.59
1003.47 1003.25 1002.98 1002.69 1002.40 1002.14 1001.94 1001.81 1001.78 1001.86 1002.05 1002.35 1002.74 1003.19 1003.68 1004.18 1004.67 1005.12 1005.53 1005.89 1006.21 1006.50 1006.77 1007.05 1007.36 1007.70 1008.09 1008.53 1009.01 1009.53 1010.06 1010.60 1011.13 1011.63 1012.10 1012.53 1012.92 1013.28
Thickness
5643 5645 5647 5650 5653 5656 5661 5663 5664 5667 5674 5686 5693 5702 5707 5711 5714 5715 5717 5719 5720 5721 5721 5722 5722 5723 5723 5723 5723 5722 5722 5721 5720 5720 5720 5719 5718 5717
5632 5635 5638 5641 5643 5648 5651 5654 5658 5661 5665 5677 5685 5694 5699 5704 5707 5709 5712 5713 5714 5716 5716 5717 5718 5719 5720 5720 5720 5720 5720 5720 5719 5718 5718 5718 5717 5717
5621 5624 5628 5631 5634 5638 5641 5644 5648 5653 5657 5667 5676 5683 5688 5693 5697 5700 5703 5705 5707 5709 5710 5711 5713 5714 5716 5716 5717 5717 5717 5717 5717 5716 5716 5716 5716 5715
5610 5613 5616 5621 5623 5627 5630 5634 5639 5644 5649 5655 5664 5671 5677 5683 5687 5690 5693 5696 5698 5701 5703 5705 5707 5709 5711 5712 5713 5714 5714 5714 5714 5714 5714 5714 5713 5713
5599 5601 5605 5608 5612 5616 5619 5623 5629 5635 5641 5647 5654 5661 5666 5672 5676 5679 5683 5686 5690 5693 5695 5697 5700 5702 5705 5707 5708 5709 5710 5710 5711 5711 5711 5711 5711 5711
5587 5591 5594 5597 5601 5605 5609 5613 5618 5623 5629 5636 5643 5649 5655 5661 5666 5668 5671 5675 5679 5683 5686 5688 5691 5694 5697 5700 5702 5704 5705 5706 5707 5707 5707 5708 5708 5708
5573 5578 5583 5587 5591 5595 5600 5603 5607 5612 5618 5624 5632 5638 5644 5649 5655 5660 5663 5665 5668 5672 5676 5679 5683 5686 5688 5691 5694 5697 5698 5700 5701 5703 5703 5704 5704 5704
5559 5564 5569 5574 5580 5585 5590 5595 5599 5603 5607 5614 5621 5628 5635 5641 5646 5650 5654 5656 5659 5664 5668 5669 5674 5677 5680 5683 5686 5689 5692 5694 5696 5697 5698 5699 5700 5700
5545 5549 5556 5563 5567 5571 5577 5584 5589 5595 5601 5606 5612 5619 5626 5633 5637 5640 5645 5649 5653 5659 5660 5660 5663 5667 5670 5673 5677 5681 5684 5686 5689 5691 5692 5693 5694 5694
5534 5538 5542 5548 5554 5558 5563 5569 5575 5583 5591 5598 5605 5611 5617 5623 5630 5634 5637 5639 5644 5648 5653 5653 5654 5657 5660 5663 5667 5671 5675 5678 5681 5683 5685 5686 5687 5687
5524 5528 5532 5536 5543 5548 5551 5556 5562 5569 5577 5586 5594 5600 5606 5613 5619 5622 5624 5628 5632 5637 5643 5646 5646 5647 5649 5653 5656 5660 5664 5668 5671 5674 5676 5677 5678 5678
5515 5519 5524 5528 5532 5537 5541 5546 5550 5557 5565 5574 5581 5588 5594 5601 5608 5614 5618 5621 5625 5628 5634 5638 5638 5640 5640 5642 5646 5650 5653 5657 5660 5664 5666 5668 5669 5669
5509 5512 5516 5521 5524 5528 5533 5538 5544 5548 5554 5561 5568 5575 5582 5590 5597 5604 5610 5615 5618 5623 5628 5631 5632 5634 5636 5635 5637 5640 5644 5647 5650 5652 5655 5657 5659 5661
5505 5508 5511 5515 5518 5520 5525 5531 5535 5539 5543 5549 5556 5564 5572 5579 5587 5594 5600 5606 5613 5618 5622 5626 5627 5629 5629 5629 5631 5632 5635 5638 5641 5643 5645 5647 5649 5650
5502 5505 5507 5510 5512 5515 5519 5524 5527 5530 5534 5540 5548 5556 5565 5572 5578 5583 5589 5595 5601 5607 5613 5619 5623 5623 5626 5627 5628 5628 5629 5630 5633 5635 5637 5639 5640 5641
5499 5501 5503 5506 5508 5511 5514 5517 5521 5525 5530 5535 5542 5549 5555 5563 5569 5575 5581 5586 5591 5597 5604 5610 5615 5618 5619 5622 5625 5625 5626 5627 5627 5628 5630 5631 5632 5633
5497 5497 5498 5500 5503 5506 5509 5512 5516 5520 5525 5530 5536 5542 5549 5556 5563 5569 5575 5580 5585 5590 5596 5600 5605 5610 5615 5617 5617 5619 5621 5621 5622 5623 5623 5624 5625 5626
5496 5496 5498 5500 5502 5505 5507 5510 5513 5517 5523 5528 5533 5539 5546 5552 5557 5563 5569 5574 5579 5585 5590 5594 5597 5600 5603 5607 5614 5615 5615 5616 5616 5617 5618 5618 5618 5619
5496 5497 5499 5501 5503 5506 5509 5512 5515 5519 5523 5527 5532 5537 5543 5548 5553 5559 5564 5569 5574 5579 5584 5589 5593 5598 5600 5603 5605 5610 5612 5612 5611 5611 5612 5613 5614 5614
5499 5500 5502 5504 5506 5509 5511 5514 5517 5520 5523 5527 5532 5536 5541 5545 5550 5555 5560 5565 5570 5575 5579 5584 5590 5596 5601 5602 5601 5603 5607 5609 5608 5607 5606 5606 5605 5606
5504 5505 5507 5508 5510 5512 5514 5516 5518 5521 5524 5528 5532 5536 5540 5543 5548 5552 5557 5561 5566 5571 5576 5582 5588 5591 5593 5594 5595 5597 5599 5603 5606 5605 5602 5599 5597 5597
5508 5510 5512 5513 5515 5516 5517 5519 5520 5523 5525 5528 5532 5536 5539 5542 5546 5550 5555 5559 5563 5568 5573 5577 5579 5583 5587 5592 5594 5594 5594 5594 5596 5598 5599 5600 5598 5596
5513 5514 5515 5516 5518 5519 5520 5522 5524 5525 5527 5530 5532 5535 5538 5541 5545 5549 5553 5557 5561 5564 5568 5571 5574 5578 5583 5587 5589 5589 5588 5589 5589 5589 5589 5592 5595 5598